OBJECT AY, 61781

Orbit data source: Space-Track

You're viewing an Uncataloged Satellite

Recently launched and/or uncataloged satellites may have evolving metadata. Metadata may include but not limited to: Owner, Maufacturer, Bus, Motor, and Mission.

OBJECT AY, 61781 is a satellite in SSO that was launched on Mon, 04 Nov 2024 UTC via a SOYUZ-2-1B launch vehicle from the Vostochny Cosmodrome (VOSTO). Unknown objects in Earth's orbit typically refer to objects detected orbiting the Earth but have not yet been identified or cataloged. These objects could be anything from previously untracked satellites, spent rocket stages, debris from satellite collisions, or even natural meteoroids temporarily captured by Earth's gravity.

Loading next visibility...
Identifier
61781, 2024-199AY
Orbit
SSO
Country
Flag of TBDTBD
Related business
Flag of RUAmur State University (RU)
Manufacturer
AMGU/HARB
Mission
Operational Amateur Communications
Bus & Motor
CUBESAT 12U, Unknown motor
Mass
~15 kg wet, ~15 kg dry
Launch date (UTC)
2024-11-04 (2 years ago)
Launch vehicle
SOYUZ-2-1B
Launch site
Vostochny Cosmodrome (VOSTO)
Object type
Unknown
Shape & HBR
Box, 0.1 m
Radar Cross Section
0.135 m², Medium (>0.1 m² and < 1m²)

Expand to show TLE details & history
Last TLE update: 9 hours ago

TLE from 9 hours ago
0 OBJECT AY
1 61781U 24199AY  26145.61701450  .00007301  00000-0  21463-3 0  9990
2 61781  97.3036  14.4937 0014912  36.4785 323.7471 15.35294464130465
Epoch: 2026-05-25T14:48Z
TLE epoch observation values (Epoch: 2026-05-25T14:48:30.052Z)
Latitude
-0.0001°
Longitude
-90.83374°
Altitude
454.94 km
Speed
7.644 km/s
True Right ascension
00h 57m 58s
True Declination
0° 00' 00"
Sunlit
Object was in daylight at epoch
Visualization orbit readout
Latitude
Unknown
Longitude
Unknown
Altitude
Unknown
Speed
Unknown
Apparent Right ascension
Unknown
Apparent Declination
Unknown
Sunlit
N/A
Visualization observer readout
Local Sidereal Time
08:58:38
Azimuth
Unknown
Elevation
Unknown
Doppler factor
Unknown
Orbital elements
Apogee altitude
467.18 km
Perigee altitude
446.795 km
Semi-major axis
6,835.124 km
Eccentricity
0.00149
Inclination
97.3036°
RAAN
14.4937°
Arg. of periapsis
36.4785°
True anomaly
323.6459°
Mean anomaly
323.7471°
Eccentric anomaly
323.69651°
Mean motion
3.84082 °/min
Orbital period
93.73 mins
BSTAR
0.00021463
Loading maneuver chart data...
Computing Atmospheric mass density...
Loading historical data...
Loading historical data...
Loading historical data...
Loading historical data...
Loading historical data...
Loading historical data...
Loading historical data...

Documentation

Showing up to 5 results
|